User: anonymous   Login
Location: Elk Forest
(39.5314°N, 75.8738°W)
Time: 12:54:08
(UTC-04:00)
Language:

Resurs 01 Rocket - Orbit

View from above orbital plane
View from above orbital plane
View from above satellite
View from above satellite

Ground track
Ground track

The orbit data is extracted from the following two-line orbital elements,

1 23343U 94074B   14296.67624124  .00000791  00000-0  12196-3 0  1512
2 23343 098.2259 302.8873 0005722 293.6383 200.2858 14.76238177 74050
Epoch (UTC): 23 October 2014 16:13:47
Eccentricity: 0.0005722
inclination: 98.2259°
perigee height: 637 km
apogee height: 645 km
right ascension of ascending node: 302.8873°
argument of perigee: 293.6383°
revolutions per day: 14.76238177
mean anomaly at epoch: 200.2858°
orbit number at epoch: 7405

The dashed part of the orbit path shows where the satellite is in the earth's shadow,  

DLR